Location: Proctor
(47.8934°N, 114.3048°W)
Time: 16:25:31
(UTC+00:00)

Transit 4A - Pass Details

Date: 14 May 2025
Orbit: 866 x 975 km, 66.8° (Epoch: 13 June)

Event Time Altitude Azimuth Distance (km) Brightness Sun altitude
Rises 09:00:15 0° 320° (NW) 3,628 11.4 -20.6°
Reaches altitude 10° 09:04:00 10° 341° (NNW) 2,659 10.9 -20.4°
Maximum altitude 09:07:38 16° 18° (NNE) 2,239 10.9 -20.1°
Drops below altitude 10° 09:11:13 10° 54° (NE) 2,610 11.1 -19.9°
Sets 09:14:51 0° 76° (ENE) 3,526 11.5 -19.6°
